IU3VGK Weather Reports


time (UTC)temp
C
wind
direction
speed
KPH
gust
KPH
rain 1hr
cm
rain 24hr
cm
rain mn
cm
humidity
%
barometer
mb
20260507073106 15 151 3.2 3.2 0.00 0.69 0.00 75 1018.8
20260507072050 15 151 3.2 3.2 0.00 0.69 0.00 75 1018.6
20260507071034 13 152 3.2 3.2 0.00 0.69 0.00 75 1018.6
20260507070119 13 152 3.2 3.2 0.00 0.69 0.00 76 1018.6
20260507065059 16 153 3.2 3.2 0.00 0.69 0.00 73 1018.6
20260507064044 14 157 1.6 3.2 0.00 0.71 0.00 70 1018.6
20260507063027 12 315 0.0 0.0 0.00 0.76 0.00 70 1017.6
20260507062110 12 315 0.0 0.0 0.00 0.79 0.00 70 1016.6
20260507061055 12 315 0.0 0.0 0.00 0.89 0.00 70 1017.0
20260507060035 12 332 1.6 4.8 0.00 0.97 0.00 77 1018.0
20260507055020 12 333 4.8 4.8 0.00 1.27 0.00 84 1018.6
20260507054104 11 333 4.8 4.8 0.00 1.68 0.00 85 1018.6
20260507053046 11 333 4.8 4.8 0.00 1.88 0.00 87 1016.6
20260507052032 11 333 4.8 4.8 0.00 1.93 0.00 84 1018.6
20260507051114 11 333 4.8 4.8 0.00 1.98 0.00 76 1018.6
20260507050117 11 333 4.8 4.8 0.00 2.01 0.00 80 1017.6
20260507045040 11 333 4.8 4.8 0.00 2.06 0.00 81 1017.6
20260507044021 11 333 4.8 4.8 0.00 2.16 0.00 85 1017.6
20260507043109 11 333 4.8 4.8 0.00 2.18 0.00 80 1015.6
20260507042050 10 333 4.8 4.8 0.00 2.18 0.00 82 1015.6
20260507041033 10 333 4.8 4.8 0.00 2.21 0.00 87 1017.6
20260507040119 11 333 4.8 4.8 0.00 2.21 0.00 83 1017.6
20260507035058 11 333 4.8 4.8 0.00 2.26 0.00 89 1016.6
20260507034044 11 333 4.8 4.8 0.00 2.26 0.00 87 1016.6
20260507033026 11 333 4.8 4.8 0.00 2.26 0.00 81 1015.6
20260507032110 11 333 4.8 4.8 0.00 2.26 0.00 81 1015.6
20260507031055 11 333 4.8 4.8 0.00 2.26 0.00 81 1017.6
20260507030052 11 333 4.8 4.8 0.00 2.26 0.00 81 1017.6
20260507025114 11 333 4.8 4.8 0.00 2.26 0.00 80 1016.6
20260507024057 11 333 4.8 4.8 0.00 2.26 0.00 81 1016.6
20260507023034 11 333 4.8 4.8 0.00 2.26 0.00 80 1017.6
20260507022132 11 333 4.8 4.8 0.00 2.26 0.00 81 1017.6
20260507021055 11 333 4.8 4.8 0.00 2.26 0.00 80 1016.8
20260507020055 11 333 4.8 4.8 0.00 2.26 0.00 80 1016.6
20260507015041 11 333 4.8 4.8 0.00 2.26 0.00 80 1016.6
20260507014104 11 330 4.8 4.8 0.00 2.26 0.00 80 1016.6
20260507013046 10 329 4.8 4.8 0.00 2.26 0.00 80 1016.6
20260507012031 10 329 4.8 4.8 0.00 2.26 0.00 80 1016.6
20260507011135 10 337 6.4 6.4 0.00 2.26 0.00 80 1016.6
20260507010057 10 340 6.4 6.4 0.00 2.26 0.00 80 1016.6
20260507005039 11 340 6.4 6.4 0.00 2.26 0.00 80 1016.6
20260507004042 11 340 6.4 6.4 0.00 2.26 0.00 78 1016.6
20260507003109 12 340 6.4 6.4 0.00 2.26 0.00 76 1017.0
20260507002051 12 340 6.4 6.4 0.00 2.26 0.00 78 1017.6
20260507001053 11 340 6.4 6.4 0.00 2.26 0.00 80 1017.3
20260507000119 12 340 6.4 6.4 0.00 2.26 0.00 80 1016.6
20260506235059 12 340 6.4 6.4 0.00 2.26 0.00 80 1016.6
20260506234104 12 340 6.4 6.4 0.00 2.26 0.00 80 1016.6
20260506233027 12 340 6.4 6.4 0.00 2.26 0.00 80 1015.6
20260506232110 12 340 6.4 6.4 0.00 2.26 0.00 80 1017.6
20260506231116 13 340 6.4 6.4 0.00 2.26 0.00 80 1017.6
20260506230035 13 340 6.4 6.4 0.00 2.26 0.00 80 1016.6
20260506225020 13 340 6.4 6.4 0.00 2.26 0.00 79 1016.6
20260506224103 13 340 6.4 6.4 0.00 2.26 0.00 80 1016.6
20260506223046 13 340 6.4 6.4 0.00 2.26 0.00 79 1015.6
20260506222031 13 340 6.4 6.4 0.00 2.26 0.00 79 1015.6
20260506221114 13 340 6.4 6.4 0.00 2.26 0.00 79 1016.6
20260506220058 13 340 6.4 6.4 0.00 2.26 0.00 78 1016.6
20260506215039 12 340 6.4 6.4 0.00 2.26 2.26 78 1016.6
20260506214120 12 340 6.4 6.4 0.00 2.26 2.26 78 1016.6
20260506213056 12 338 8.0 8.0 0.00 2.26 2.26 77 1015.6
20260506212033 12 89 8.0 8.0 0.00 2.26 2.26 77 1015.6
20260506211109 13 89 8.0 8.0 0.00 2.26 2.26 77 1016.6
20260506210046 13 89 8.0 8.0 0.00 2.26 2.26 75 1016.6
20260506205042 13 89 8.0 8.0 0.00 2.26 2.26 76 1016.6
20260506204058 13 89 8.0 8.0 0.00 2.26 2.26 77 1015.8
20260506203034 13 89 8.0 8.0 0.00 2.26 2.26 76 1015.6
20260506202120 13 89 8.0 8.0 0.00 2.26 2.26 77 1015.6
20260506201059 13 89 8.0 8.0 0.00 2.26 2.26 77 1016.3
20260506200044 13 89 8.0 8.0 0.00 2.26 2.26 77 1016.0
20260506195029 14 89 8.0 8.0 0.00 2.26 2.26 77 1015.6
20260506194111 14 89 8.0 8.0 0.00 2.26 2.26 76 1015.0
20260506193056 14 89 8.0 8.0 0.00 2.26 2.26 76 1014.6
20260506192035 14 89 8.0 8.0 0.00 2.26 2.26 76 1014.6
20260506191021 14 89 8.0 8.0 0.00 2.26 2.26 76 1015.1
20260506190104 15 89 8.0 8.0 0.00 2.26 2.26 76 1015.6
20260506185046 15 89 8.0 8.0 0.00 2.26 2.26 77 1015.6
20260506184032 15 89 8.0 8.0 0.00 2.26 2.26 77 1015.3
20260506183115 15 89 8.0 8.0 0.00 2.26 2.26 76 1014.8
20260506182059 15 89 8.0 8.0 0.00 2.26 2.26 75 1015.6
20260506181034 15 89 8.0 8.0 0.00 2.26 2.26 75 1015.6
20260506180120 16 89 8.0 8.0 0.00 2.26 2.26 74 1014.6
20260506175059 16 89 8.0 8.0 0.00 2.26 2.26 75 1014.6
20260506174044 16 89 8.0 8.0 0.00 2.26 2.26 74 1015.6
20260506173026 16 89 8.0 8.0 0.00 2.26 2.26 72 1014.6
20260506172131 16 89 8.0 8.0 0.00 2.26 2.26 72 1014.6
20260506171115 16 89 8.0 8.0 0.00 2.26 2.26 73 1014.6
20260506170115 16 89 8.0 8.0 0.00 2.26 2.26 74 1014.6
20260506165020 16 89 8.0 8.0 0.00 2.26 2.26 74 1014.6
20260506164104 17 89 8.0 8.0 0.00 2.26 2.26 74 1014.6
20260506163046 17 89 8.0 8.0 0.00 2.26 2.26 74 1013.6
20260506162031 17 89 8.0 8.0 0.00 2.29 2.26 74 1013.6
20260506161108 16 89 8.0 8.0 0.00 2.34 2.26 74 1014.6
20260506160044 16 89 8.0 8.0 0.00 2.34 2.26 75 1014.6
20260506155020 16 89 8.0 8.0 0.00 2.34 2.26 75 1014.6
20260506154104 16 49 8.0 8.0 0.00 2.34 2.26 78 1014.6
20260506153107 16 56 6.4 6.4 0.00 2.34 2.26 77 1013.6
20260506152032 16 49 8.0 8.0 0.00 2.34 2.26 80 1013.6
20260506151110 16 56 6.4 6.4 0.00 2.34 2.26 79 1014.6
20260506150051 16 49 8.0 8.0 0.00 2.34 2.26 79 1014.6
20260506145034 16 56 6.4 8.0 0.00 2.34 2.26 79 1014.6
20260506144120 15 48 8.0 8.0 0.00 2.34 2.26 79 1015.4
20260506143100 15 46 8.0 8.0 0.00 2.34 2.26 80 1015.6
20260506142044 15 46 8.0 8.0 0.00 2.39 2.26 79 1015.6
20260506141027 15 65 6.4 8.0 0.00 2.44 2.26 77 1014.9
20260506140130 15 76 6.4 6.4 0.03 2.49 2.26 77 1014.6
20260506135056 15 76 6.4 6.4 0.05 2.49 2.26 78 1014.6
20260506134055 15 76 6.4 6.4 0.05 2.51 2.26 79 1015.6
20260506133040 15 76 6.4 6.4 0.10 2.51 2.26 79 1016.6
20260506132104 15 76 6.4 6.4 0.13 2.54 2.26 79 1016.2
20260506131046 15 76 6.4 9.7 0.20 2.54 2.26 80 1015.6
20260506130031 15 76 6.4 6.4 0.43 2.51 2.21 82 1015.6
20260506125115 14 76 6.4 6.4 0.53 2.49 2.18 84 1015.6
20260506124057 15 76 6.4 6.4 0.56 2.49 2.18 79 1015.6
20260506123039 15 76 6.4 6.4 0.56 2.46 2.16 79 1015.6
20260506122022 15 76 6.4 6.4 0.53 2.44 2.13 79 1014.6
20260506121109 14 76 6.4 6.4 0.46 2.34 2.03 81 1014.6
20260506120047 14 76 6.4 6.4 0.20 2.11 1.80 87 1016.6
20260506115026 15 76 6.4 6.4 0.05 1.96 1.65 87 1015.6
20260506114110 15 76 6.4 6.4 0.05 1.93 1.63 86 1015.6
20260506113055 15 76 6.4 6.4 0.03 1.88 1.60 83 1016.6
20260506112034 15 76 6.4 6.4 0.03 1.88 1.60 77 1016.6
20260506111020 14 76 6.4 6.4 0.03 1.88 1.60 77 1015.6
20260506110103 14 56 4.8 4.8 0.03 1.88 1.60 77 1015.6
20260506105046 14 56 4.8 4.8 0.03 1.88 1.60 77 1015.6
20260506104031 15 56 4.8 4.8 0.00 1.85 1.55 76 1016.6
20260506103114 15 56 4.8 4.8 0.00 1.88 1.55 75 1017.6
20260506102057 15 56 4.8 4.8 0.00 1.93 1.55 77 1017.6
20260506101059 15 56 4.8 4.8 0.00 1.96 1.55 83 1016.6
20260506100120 15 56 4.8 4.8 0.00 1.98 1.55 83 1016.6
20260506095119 15 56 4.8 4.8 0.00 2.03 1.55 77 1016.6
20260506094045 15 56 4.8 4.8 0.00 2.06 1.55 77 1016.6
20260506093027 15 56 4.8 4.8 0.00 2.13 1.55 78 1016.6
20260506092108 14 56 4.8 4.8 0.00 2.13 1.55 78 1017.5
20260506091047 15 56 4.8 4.8 0.00 2.16 1.55 80 1016.8
20260506090031 14 56 4.8 4.8 0.00 2.18 1.55 79 1016.6
20260506085135 15 56 4.8 4.8 0.00 2.18 1.55 85 1016.6
20260506084138 14 31 3.2 4.8 0.00 2.18 1.55 82 1016.6
20260506083119 14 12 3.2 3.2 0.00 2.18 1.55 80 1016.6
20260506082022 14 12 3.2 3.2 0.00 2.18 1.55 81 1016.6
20260506081109 13 12 3.2 3.2 0.00 2.18 1.55 82 1016.6